Regional Weather Roundup
Issued by NWS

Home | Current Version | Previous Version | Text Only | Print | Product List | Glossary On
Versions: 1 2 3 4 5 6 7 8 9 10 11 12 13 14 15 16 17 18 19 20 21 22 23 24 25 26 27 28
000
ASUS45 KPSR 291810
RWRAZ

ARIZONA HOURLY REGIONAL WEATHER ROUNDUP
NATIONAL WEATHER SERVICE PHOENIX AZ
1100 AM MST SAT APR 29 2017

NOTE: FAIR INDICATES FEW OR NO CLOUDS BELOW 12,000 FEET WITH NO
SIGNIFICANT WEATHER AND/OR OBSTRUCTIONS TO VISIBILITY.

AZZ001>003-036-291900-
NORTHWEST ARIZONA

CITY           SKY/WX    TMP DP  RH WIND       PRES   REMARKS
BULLHEAD CITY  SUNNY     72  23  16 NW22G31   30.05S
KINGMAN        SUNNY     62  50  65 N12G26    30.08S
6HR MIN TEMP:  41; 6HR MAX TEMP:  62;

$$

AZZ004>008-015-016-018-291900-
NORTH CENTRAL ARIZONA

CITY           SKY/WX    TMP DP  RH WIND       PRES   REMARKS
GRAND CANYON   MOSUNNY   46  19  34 N7G18     30.05R
6HR MIN TEMP:  18; 6HR MAX TEMP:  48;

WILLIAMS       MOSUNNY   46  18  31 N15G24    30.06R
PRESCOTT       MOSUNNY   55  18  23 N15G30    30.05R
6HR MIN TEMP:  33; 6HR MAX TEMP:  56;

FLAGSTAFF      MOSUNNY   45  12  26 N13G21    30.03R
6HR MIN TEMP:  23; 6HR MAX TEMP:  47;

PAYSON         PTSUNNY   55  16  21 VRB6G13   30.02R
PAGE           PTSUNNY   58  19  22 E7G17     30.00S
6HR MIN TEMP:  45; 6HR MAX TEMP:  59;

$$

AZZ009>014-017-291900-
NORTHEAST ARIZONA

CITY           SKY/WX    TMP DP  RH WIND       PRES   REMARKS
WINSLOW        PTSUNNY   53  20  27 NW16G26   30.00R
6HR MIN TEMP:  28; 6HR MAX TEMP:  55;

SAINT JOHNS    PTSUNNY   47  25  42 NW14G26   29.96R
6HR MIN TEMP:  29; 6HR MAX TEMP:  48;

WINDOW ROCK    CLOUDY    37  31  78 N9        29.96S WCI  30
6HR MIN TEMP:  23; 6HR MAX TEMP:  41; 6HR PCP:  0.01;

SHOW LOW       MOSUNNY   45  16  31 NW16G24   30.00S
$$

AZZ540-542>544-546-548-291900-
GREATER PHOENIX AREA

CITY           SKY/WX    TMP DP  RH WIND       PRES   REMARKS
PHOENIX        MOSUNNY   72  18  13 NW10G21   29.95R
6HR MIN TEMP:  58; 6HR MAX TEMP:  72;

BUCKEYE        SUNNY     72  16  12 NW10      29.98S
GLENDALE       MOSUNNY   73  19  13 SW6G16    29.98R
LUKE AFB       SUNNY     72  20  14 CALM      29.95S
6HR MIN TEMP:  54; 6HR MAX TEMP:  72;

DEER VALLEY    SUNNY     72  17  12 N15G23    29.95R
6HR MIN TEMP:  56; 6HR MAX TEMP:  72;

SCOTTSDALE     SUNNY     71  18  13 N8        29.96R
6HR MIN TEMP:  56; 6HR MAX TEMP:  71;

MESA-FALCON    MOSUNNY  N/A N/A N/A N17G23    29.95S
MESA-GATEWAY   SUNNY     70  18  13 NW8G17    29.96R
CHANDLER       SUNNY     70  16  12 W14       29.95S
$$

AZZ539-553-291900-
SOUTHWEST MARICOPA COUNTY AND PINAL COUNTY

CITY           SKY/WX    TMP DP  RH WIND       PRES   REMARKS
CASA GRANDE    SUNNY     70  19  14 W10       29.97S
6HR MIN TEMP:  55; 6HR MAX TEMP:  70;

GILA BEND      SUNNY     71  14  11 CALM      29.97S
6HR MIN TEMP:  52; 6HR MAX TEMP:  72;

$$

AZZ503-504-507>509-291900-
SOUTHEAST ARIZONA

CITY           SKY/WX    TMP DP  RH WIND       PRES   REMARKS
TUCSON         SUNNY     67  12  12 W10G21    29.98R
6HR MIN TEMP:  53; 6HR MAX TEMP:  67;

DAVIS-MONTHAN  SUNNY     65  12  12 NW14G20   29.97R
6HR MIN TEMP:  52; 6HR MAX TEMP:  65;

RYAN FIELD     SUNNY     66  12  12 NW15G21   29.99R
NOGALES        SUNNY     65   6  10 NW10G24   29.98R
6HR MIN TEMP:  46; 6HR MAX TEMP:  65;

SIERRA VISTA   SUNNY     60   4  10 W15G24    29.99R
6HR MIN TEMP:  48; 6HR MAX TEMP:  60;

DOUGLAS        SUNNY     64   5   9 NW18G26   29.96R
6HR MIN TEMP:  51; 6HR MAX TEMP:  64;

SAFFORD        SUNNY     65  10  11 W21G31    29.91R
6HR MIN TEMP:  43; 6HR MAX TEMP:  65;

$$

AZZ532-291900-
SOUTHWEST ARIZONA

CITY           SKY/WX    TMP DP  RH WIND       PRES   REMARKS
YUMA           SUNNY     77  21  12 N18G25    30.00S
6HR MIN TEMP:  65; 6HR MAX TEMP:  77;

$$

CAZ041-043-047-048-061-525>527-560>570-291900-
SOUTHERN CALIFORNIA

CITY           SKY/WX    TMP DP  RH WIND       PRES   REMARKS
DOWNTOWN L.A.  SUNNY     81  16   9 VRB5      30.00R
6HR MIN TEMP:  63; 6HR MAX TEMP:  82;

L.A. AIRPORT   SUNNY     77  18  11 W9        30.01S
6HR MIN TEMP:  64; 6HR MAX TEMP:  77;

SAN DIEGO      SUNNY     77  15   9 SW7       29.99R
6HR MIN TEMP:  59; 6HR MAX TEMP:  77;

BURBANK        SUNNY     77   7   7 N14G25    30.02S
6HR MIN TEMP:  64; 6HR MAX TEMP:  78;

ONTARIO        SUNNY     75  13   9 NE25G44   30.02S
6HR MIN TEMP:  64; 6HR MAX TEMP:  75;

RIVERSIDE      SUNNY     75  19  12 N18G28    30.02R
6HR MIN TEMP:  63; 6HR MAX TEMP:  76;

PALM SPRINGS   SUNNY     79  16   9 N15G23    30.08S
6HR MIN TEMP:  62; 6HR MAX TEMP:  79;

EL CENTRO NAS  SUNNY     78  16   9 NE10G20   30.04S
6HR MIN TEMP:  56; 6HR MAX TEMP:  78; 6HR PCP: TRACE;

IMPERIAL       SUNNY     77  26  15 N13       30.02S
6HR MIN TEMP:  59; 6HR MAX TEMP:  78;

BLYTHE         MOSUNNY   76  20  12 N18G31    30.03S
6HR MIN TEMP:  61; 6HR MAX TEMP:  76;

NEEDLES        SUNNY     75  22  13 NE20G33   30.05S
6HR MIN TEMP:  62; 6HR MAX TEMP:  75;

$$

NVZ020-UTZ003-291900-
SOUTHERN NEVADA-UTAH

CITY           SKY/WX    TMP DP  RH WIND       PRES   REMARKS
LAS VEGAS      MOSUNNY   69  16  13 NW14G21   30.11S
6HR MIN TEMP:  57; 6HR MAX TEMP:  69;

SALT LAKE CITY MOSUNNY   51  25  36 VRB7      30.20R
6HR MIN TEMP:  36; 6HR MAX TEMP:  51;

$$

NMZ009-TXZ055-291900-
NEW MEXICO-WEST TEXAS

CITY           SKY/WX    TMP DP  RH WIND       PRES   REMARKS
ALBUQUERQUE    CLOUDY    36  34  92 CALM      29.96F FOG
6HR MIN TEMP:  32; 6HR MAX TEMP:  37; 6HR PCP:  0.13;

EL PASO        PTSUNNY   55  35  47 W9G21     29.87S
6HR MIN TEMP:  43; 6HR MAX TEMP:  56; 6HR PCP:  0.10;

$$


........................KEY........................
SKY/WX - SKY CONDITION/WEATHER
TMP    - TEMPERATURE IN FAHRENHEIT
DP     - DEW POINT IN FAHRENHEIT
RH     - RELATIVE HUMIDITY IN PERCENT
WIND   - DIRECTION AND SPEED IN MILES PER HOUR (MPH)
VRB    - VARIABLE WIND DIRECTION
PRES   - MEAN SEA LEVEL PRESSURE IN INCHES OF MERCURY
         F - FALLING PRESSURE   R - RISING PRESSURE
         S - STEADY PRESSURE
VSB    - VISIBILITY IN MILES
HX     - HEAT INDEX IN FAHRENHEIT
WCI    - WIND CHILL INDEX IN FAHRENHEIT
TC     - TEMPERATURE IN CELSIUS WHICH IS ALSO KNOWN AS
         TEMPERATURE IN CENTIGRADE
AFB    - AIR FORCE BASE
         LUKE AFB IS LUKE AIR FORCE BASE
         DAVIS-MONTHAN IS DAVIS-MONTHAN AIR FORCE BASE
NAS    - NAVAL AIR STATION
         EL CENTRO NAS IS EL CENTRO NAVAL AIR STATION
N/A    - NOT AVAILABLE





USA.gov is the U.S. government's official web portal to all federal, state and local government web resources and services.